Starlink 30446

operational
NORAD ID: 57872 Int'l Des: 2023-144 Owner: SPXS Country: US Constellation: starlink
LEOCIRCULAR

About Starlink 30446

Description loading...

Live Position

Loading 3D Globe...

Upcoming Passes

Altitude History

Altitude vs Time

uPlot chart will show altitude changes over time

Two-Line Element Set

1 57872U 23144J 25259.37824699 .00001055 00000-0 93147-4 0 9993
2 57872 43.0028 141.5141 0001203 263.6748 96.3957 15.02543067111271
Epoch: Sep 16, 2025 • Age: 14 hours

Current Status

Altitude 567.6 km
Velocity 7.58 km/s
Sub-Earth Point -32.94°S, 110.39°E
Launch Date Sep 16, 2023
Age 2 years
Type internet

Technical Details

Classification Payload
Mass 730.00 kg
Dry Mass 700.00 kg
Total Mass 730.00 kg
Length 0.30 m
Diameter 4.10 m
Span 29.00 m
Shape Box + pan
Manufacturer SPXS
Bus Type Starlink V2M
Phase Status In Orbit
Owner/State SPXS/US

Large Constellations

Loading constellations...